QPF
0.00 0.00 0.00 0.00 0.00 0.00 0.00 0.00 0.00 0.00 0.01 0.05 0.06 0.06 0.05 0.02 0.01 0.01 0.01 0.01 0.01 0.01 0.01 0.01 0.01 0.02 0.02 0.03 0.05 0.05 0.05 0.05 0.06 0.07 0.09 0.09 0.09 0.10 0.10 0.09 0.09 0.09 0.10 0.11
0.00 0.00 0.00 0.00 0.00 0.00 0.00 0.00 0.00 0.00 0.03 0.10 0.10 0.06 0.04 0.02 0.01 0.01 0.01 0.00 0.00 0.01 0.01 0.01 0.01 0.02 0.02 0.03 0.04 0.05 0.06 0.06 0.07 0.08 0.09 0.07 0.06 0.08 0.08 0.08 0.09 0.09 0.10 0.11
0.00 0.00 0.00 0.00 0.00 0.00 0.00 0.00 0.00 0.01 0.04 0.07 0.06 0.06 0.04 0.03 0.01 0.01 0.00 0.00 0.01 0.01 0.01 0.01 0.01 0.03 0.03 0.02 0.03 0.04 0.06 0.07 0.07 0.08 0.10 0.07 0.06 0.07 0.08 0.09 0.10 0.09 0.10 0.12
0.00 0.00 0.00 0.00 0.00 0.00 0.00 0.00 0.00 0.01 0.02 0.04 0.04 0.06 0.03 0.01 0.00 0.00 0.00 0.00 0.01 0.01 0.02 0.01 0.01 0.01 0.01 0.01 0.02 0.03 0.04 0.07 0.08 0.07 0.09 0.08 0.07 0.08 0.11 0.12 0.12 0.10 0.08 0.08
0.00 0.00 0.00 0.00 0.00 0.00 0.00 0.00 0.00 0.01 0.02 0.02 0.03 0.01 0.01 0.00 0.00 0.00 0.00 0.00 0.01 0.01 0.02 0.03 0.01 0.00 0.00 0.01 0.02 0.03 0.04 0.06 0.08 0.07 0.09 0.11 0.10 0.08 0.08 0.10 0.11 0.11 0.10 0.09
0.00 0.00 0.00 0.01 0.01 0.01 0.00 0.01 0.02 0.01 0.02 0.02 0.01 0.03 0.04 0.01 0.00 0.00 0.00 0.01 0.01 0.01 0.01 0.03 0.03 0.01 0.01 0.02 0.03 0.03 0.04 0.05 0.06 0.07 0.09 0.10 0.10 0.10 0.09 0.09 0.09 0.10 0.11 0.10
0.00 0.00 0.01 0.01 0.01 0.01 0.02 0.03 0.04 0.02 0.01 0.01 0.02 0.02 0.02 0.01 0.00 0.00 0.00 0.01 0.01 0.01 0.02 0.02 0.04 0.03 0.03 0.03 0.04 0.04 0.05 0.06 0.06 0.07 0.08 0.10 0.09 0.08 0.09 0.08 0.07 0.07 0.07 0.08
0.00 0.01 0.02 0.01 0.01 0.03 0.06 0.05 0.02 0.01 0.03 0.02 0.01 0.00 0.00 0.00 0.00 0.00 0.00 0.01 0.01 0.01 0.02 0.02 0.03 0.04 0.04 0.04 0.04 0.04 0.04 0.05 0.05 0.05 0.06 0.07 0.08 0.06 0.06 0.07 0.07 0.06 0.05 0.04
0.01 0.03 0.03 0.01 0.01 0.02 0.03 0.04 0.01 0.01 0.02 0.01 0.00 0.00 0.00 0.00 0.00 0.01 0.01 0.01 0.01 0.02 0.02 0.03 0.04 0.05 0.07 0.06 0.05 0.04 0.05 0.05 0.04 0.04 0.05 0.07 0.08 0.09 0.09 0.08 0.08 0.07 0.07 0.07
0.02 0.04 0.02 0.01 0.01 0.03 0.05 0.03 0.01 0.01 0.02 0.00 0.00 0.00 0.00 0.01 0.01 0.01 0.01 0.01 0.02 0.02 0.03 0.05 0.05 0.05 0.07 0.06 0.05 0.04 0.04 0.04 0.03 0.04 0.04 0.04 0.05 0.07 0.08 0.09 0.10 0.10 0.09 0.08
0.03 0.04 0.03 0.04 0.04 0.04 0.03 0.01 0.01 0.01 0.01 0.00 0.00 0.00 0.01 0.01 0.01 0.01 0.01 0.02 0.02 0.03 0.03 0.04 0.06 0.07 0.07 0.05 0.04 0.04 0.04 0.04 0.05 0.06 0.05 0.05 0.05 0.06 0.08 0.08 0.08 0.07 0.06 0.07
0.07 0.04 0.04 0.05 0.02 0.02 0.01 0.00 0.00 0.00 0.00 0.00 0.00 0.00 0.01 0.01 0.01 0.01 0.02 0.03 0.03 0.03 0.03 0.04 0.05 0.07 0.07 0.05 0.05 0.06 0.06 0.06 0.07 0.07 0.07 0.07 0.06 0.07 0.09 0.08 0.09 0.08 0.08 0.08
0.04 0.03 0.03 0.02 0.01 0.01 0.01 0.01 0.00 0.01 0.00 0.00 0.01 0.01 0.01 0.01 0.01 0.01 0.02 0.02 0.02 0.02 0.04 0.05 0.06 0.06 0.06 0.06 0.09 0.10 0.10 0.11 0.12 0.11 0.11 0.10 0.10 0.09 0.09 0.08 0.07 0.06 0.07 0.07
0.02 0.02 0.02 0.03 0.03 0.03 0.02 0.02 0.02 0.01 0.00 0.00 0.01 0.01 0.02 0.01 0.01 0.01 0.02 0.01 0.01 0.01 0.02 0.03 0.04 0.04 0.05 0.06 0.09 0.11 0.12 0.13 0.14 0.13 0.12 0.11 0.11 0.10 0.09 0.08 0.08 0.08 0.08 0.07
0.03 0.02 0.02 0.03 0.05 0.07 0.08 0.05 0.05 0.02 0.00 0.00 0.00 0.01 0.01 0.02 0.01 0.01 0.01 0.01 0.01 0.02 0.02 0.02 0.03 0.02 0.02 0.04 0.06 0.07 0.08 0.10 0.09 0.10 0.11 0.11 0.09 0.08 0.06 0.05 0.04 0.04 0.04 0.04
0.03 0.02 0.02 0.02 0.03 0.04 0.07 0.07 0.06 0.03 0.01 0.01 0.01 0.01 0.01 0.02 0.02 0.01 0.01 0.01 0.02 0.04 0.06 0.05 0.03 0.02 0.02 0.02 0.04 0.05 0.06 0.09 0.08 0.07 0.06 0.06 0.05 0.04 0.04 0.04 0.04 0.04 0.04 0.04
0.04 0.06 0.06 0.05 0.03 0.02 0.02 0.03 0.03 0.02 0.01 0.01 0.01 0.01 0.01 0.02 0.02 0.02 0.02 0.02 0.03 0.05 0.06 0.05 0.04 0.03 0.03 0.03 0.04 0.04 0.05 0.05 0.06 0.04 0.03 0.03 0.03 0.03 0.03 0.04 0.04 0.03 0.03 0.03
0.03 0.06 0.08 0.06 0.05 0.05 0.04 0.04 0.05 0.03 0.01 0.01 0.01 0.01 0.01 0.01 0.02 0.02 0.01 0.02 0.02 0.03 0.04 0.03 0.03 0.03 0.03 0.02 0.02 0.02 0.02 0.02 0.02 0.02 0.02 0.02 0.03 0.03 0.03 0.03 0.03 0.03 0.03 0.02
0.01 0.03 0.05 0.04 0.03 0.04 0.07 0.07 0.07 0.04 0.02 0.02 0.02 0.02 0.02 0.02 0.02 0.02 0.01 0.01 0.02 0.02 0.02 0.02 0.02 0.01 0.01 0.01 0.01 0.01 0.01 0.00 0.00 0.00 0.00 0.01 0.01 0.01 0.02 0.03 0.03 0.03 0.02 0.01
0.02 0.02 0.02 0.02 0.02 0.02 0.05 0.07 0.06 0.03 0.03 0.03 0.03 0.03 0.02 0.02 0.01 0.01 0.01 0.02 0.02 0.02 0.01 0.01 0.01 0.01 0.01 0.01 0.01 0.00 0.00 0.00 0.00 0.00 0.01 0.01 0.01 0.01 0.01 0.01 0.01 0.01 0.01 0.00
0.02 0.02 0.02 0.02 0.04 0.03 0.03 0.04 0.03 0.03 0.03 0.03 0.02 0.02 0.02 0.02 0.01 0.01 0.01 0.01 0.02 0.02 0.02 0.03 0.02 0.02 0.02 0.01 0.01 0.01 0.01 0.01 0.00 0.00 0.01 0.01 0.01 0.01 0.00 0.00 0.00 0.00 0.00 0.00
0.04 0.03 0.03 0.04 0.04 0.04 0.04 0.04 0.03 0.02 0.02 0.03 0.02 0.02 0.02 0.02 0.02 0.01 0.01 0.02 0.02 0.02 0.02 0.01 0.01 0.02 0.02 0.02 0.01 0.01 0.01 0.01 0.00 0.00 0.00 0.00 0.00 0.00 0.00 0.00 0.00 0.00 0.00 0.00
0.05 0.04 0.05 0.05 0.04 0.03 0.04 0.04 0.03 0.03 0.03 0.03 0.03 0.03 0.02 0.02 0.02 0.01 0.01 0.01 0.01 0.02 0.02 0.01 0.02 0.02 0.01 0.01 0.01 0.01 0.01 0.00 0.00 0.00 0.00 0.00 0.00 0.00 0.00 0.00 0.00 0.00 0.00 0.00
0.06 0.06 0.06 0.05 0.04 0.05 0.06 0.05 0.05 0.04 0.04 0.03 0.03 0.03 0.03 0.03 0.02 0.02 0.01 0.02 0.02 0.02 0.01 0.02 0.01 0.01 0.01 0.01 0.01 0.01 0.00 0.00 0.00 0.00 0.00 0.00 0.00 0.00 0.00 0.00 0.00 0.00 0.00 0.00
0.07 0.07 0.06 0.05 0.06 0.06 0.06 0.06 0.06 0.04 0.03 0.03 0.03 0.03 0.03 0.03 0.02 0.02 0.01 0.01 0.01 0.01 0.01 0.01 0.01 0.00 0.00 0.00 0.00 0.00 0.00 0.00 0.00 0.00 0.00 0.00 0.00 0.00 0.00 0.00 0.00 0.00 0.00 0.00
0.08 0.08 0.08 0.06 0.05 0.05 0.05 0.06 0.05 0.04 0.03 0.03 0.02 0.02 0.02 0.02 0.01 0.01 0.01 0.01 0.01 0.01 0.01 0.01 0.00 0.00 0.00 0.00 0.00 0.00 0.00 0.00 0.00 0.00 0.00 0.00 0.00 0.00 0.00 0.00 0.00 0.00 0.00 0.00
0.08 0.09 0.08 0.06 0.05 0.05 0.05 0.04 0.04 0.04 0.03 0.02 0.02 0.02 0.02 0.02 0.01 0.01 0.00 0.00 0.00 0.00 0.00 0.00 0.00 0.00 0.00 0.00 0.00 0.00 0.00 0.00 0.00 0.00 0.00 0.00 0.00 0.00 0.00 0.00 0.00 0.00 0.00 0.00
MSLP
1005.21 1005.23 1005.22 1005.21 1005.25 1005.37 1005.56 1005.82 1006.10 1006.38 1006.61 1006.77 1006.83 1006.81 1006.73 1006.64 1006.57 1006.56 1006.64 1006.82 1007.10 1007.47 1007.88 1008.31 1008.72 1009.08 1009.39 1009.63 1009.81 1009.95 1010.08 1010.21 1010.37 1010.56 1010.80 1011.07 1011.37 1011.69 1012.01 1012.33 1012.63 1012.93 1013.24 1013.57
1005.51 1005.43 1005.26 1005.05 1004.88 1004.80 1004.85 1005.03 1005.33 1005.71 1006.12 1006.52 1006.85 1007.09 1007.24 1007.31 1007.33 1007.33 1007.36 1007.44 1007.60 1007.83 1008.14 1008.49 1008.85 1009.20 1009.51 1009.77 1009.97 1010.12 1010.25 1010.37 1010.52 1010.71 1010.95 1011.24 1011.58 1011.94 1012.31 1012.67 1013.01 1013.33 1013.64 1013.95
1005.79 1005.64 1005.35 1005.00 1004.66 1004.42 1004.34 1004.45 1004.74 1005.18 1005.73 1006.31 1006.86 1007.33 1007.68 1007.91 1008.02 1008.07 1008.08 1008.11 1008.18 1008.33 1008.54 1008.82 1009.14 1009.46 1009.76 1010.02 1010.22 1010.38 1010.51 1010.64 1010.79 1010.99 1011.26 1011.59 1011.97 1012.39 1012.82 1013.23 1013.61 1013.95 1014.27 1014.57
1005.97 1005.80 1005.45 1005.01 1004.57 1004.22 1004.04 1004.07 1004.33 1004.80 1005.42 1006.12 1006.83 1007.46 1007.98 1008.36 1008.59 1008.71 1008.75 1008.76 1008.80 1008.89 1009.05 1009.27 1009.53 1009.81 1010.09 1010.33 1010.52 1010.68 1010.81 1010.94 1011.11 1011.34 1011.64 1012.02 1012.47 1012.95 1013.45 1013.93 1014.37 1014.75 1015.07 1015.37
1006.04 1005.86 1005.51 1005.04 1004.55 1004.14 1003.90 1003.87 1004.09 1004.55 1005.19 1005.95 1006.75 1007.51 1008.15 1008.66 1009.00 1009.21 1009.32 1009.37 1009.40 1009.47 1009.59 1009.76 1009.97 1010.20 1010.43 1010.63 1010.79 1010.93 1011.05 1011.19 1011.38 1011.64 1011.99 1012.44 1012.96 1013.53 1014.12 1014.68 1015.19 1015.63 1016.00 1016.31
1005.99 1005.84 1005.51 1005.07 1004.59 1004.17 1003.89 1003.83 1004.01 1004.44 1005.07 1005.85 1006.69 1007.51 1008.25 1008.86 1009.31 1009.62 1009.81 1009.91 1009.97 1010.04 1010.13 1010.26 1010.41 1010.57 1010.73 1010.87 1010.98 1011.08 1011.19 1011.33 1011.54 1011.84 1012.25 1012.77 1013.38 1014.05 1014.73 1015.40 1016.00 1016.53 1016.96 1017.33
1005.85 1005.75 1005.48 1005.10 1004.67 1004.29 1004.03 1003.96 1004.11 1004.51 1005.11 1005.87 1006.72 1007.58 1008.38 1009.06 1009.60 1010.00 1010.26 1010.43 1010.53 1010.60 1010.66 1010.74 1010.82 1010.90 1010.97 1011.03 1011.08 1011.13 1011.21 1011.35 1011.57 1011.92 1012.39 1012.99 1013.69 1014.47 1015.26 1016.04 1016.76 1017.39 1017.92 1018.36
1005.70 1005.64 1005.45 1005.16 1004.83 1004.52 1004.31 1004.27 1004.43 1004.80 1005.38 1006.11 1006.95 1007.81 1008.63 1009.36 1009.97 1010.44 1010.77 1010.98 1011.11 1011.18 1011.21 1011.22 1011.22 1011.20 1011.18 1011.15 1011.12 1011.12 1011.17 1011.31 1011.55 1011.94 1012.47 1013.15 1013.94 1014.82 1015.73 1016.62 1017.46 1018.20 1018.84 1019.39
1005.56 1005.55 1005.46 1005.28 1005.07 1004.88 1004.77 1004.78 1004.97 1005.35 1005.91 1006.62 1007.42 1008.27 1009.10 1009.85 1010.49 1011.00 1011.38 1011.62 1011.76 1011.81 1011.80 1011.74 1011.66 1011.55 1011.42 1011.31 1011.21 1011.16 1011.19 1011.32 1011.59 1012.01 1012.60 1013.35 1014.22 1015.18 1016.19 1017.18 1018.12 1018.98 1019.73 1020.37
1005.47 1005.53 1005.53 1005.48 1005.41 1005.36 1005.37 1005.49 1005.74 1006.14 1006.70 1007.38 1008.17 1008.99 1009.80 1010.54 1011.19 1011.72 1012.11 1012.37 1012.50 1012.53 1012.47 1012.35 1012.18 1011.99 1011.78 1011.60 1011.45 1011.36 1011.38 1011.52 1011.81 1012.27 1012.91 1013.70 1014.63 1015.65 1016.72 1017.78 1018.81 1019.75 1020.58 1021.30
1005.45 1005.57 1005.67 1005.76 1005.85 1005.96 1006.11 1006.34 1006.67 1007.12 1007.68 1008.36 1009.11 1009.90 1010.67 1011.40 1012.04 1012.56 1012.95 1013.20 1013.32 1013.32 1013.22 1013.05 1012.83 1012.58 1012.32 1012.09 1011.92 1011.83 1011.85 1012.01 1012.33 1012.82 1013.48 1014.30 1015.25 1016.29 1017.38 1018.47 1019.53 1020.51 1021.38 1022.15
1005.48 1005.66 1005.88 1006.11 1006.35 1006.61 1006.91 1007.26 1007.67 1008.17 1008.76 1009.42 1010.14 1010.89 1011.62 1012.31 1012.92 1013.43 1013.80 1014.05 1014.15 1014.14 1014.03 1013.84 1013.60 1013.32 1013.06 1012.82 1012.66 1012.58 1012.63 1012.82 1013.17 1013.68 1014.35 1015.17 1016.11 1017.13 1018.19 1019.25 1020.28 1021.24 1022.11 1022.87
1005.53 1005.79 1006.12 1006.48 1006.87 1007.28 1007.71 1008.16 1008.66 1009.20 1009.80 1010.44 1011.12 1011.82 1012.51 1013.15 1013.72 1014.20 1014.57 1014.81 1014.92 1014.92 1014.82 1014.65 1014.42 1014.17 1013.93 1013.73 1013.60 1013.57 1013.66 1013.89 1014.26 1014.78 1015.45 1016.24 1017.12 1018.08 1019.07 1020.06 1021.01 1021.91 1022.72 1023.42
1005.59 1005.94 1006.38 1006.87 1007.38 1007.91 1008.45 1008.99 1009.54 1010.11 1010.70 1011.31 1011.94 1012.58 1013.20 1013.80 1014.33 1014.79 1015.15 1015.40 1015.54 1015.57 1015.52 1015.39 1015.21 1015.02 1014.84 1014.70 1014.64 1014.66 1014.81 1015.07 1015.46 1015.98 1016.62 1017.36 1018.17 1019.04 1019.92 1020.80 1021.65 1022.43 1023.14 1023.77
1005.65 1006.11 1006.65 1007.25 1007.87 1008.50 1009.11 1009.71 1010.29 1010.85 1011.41 1011.97 1012.53 1013.10 1013.66 1014.20 1014.70 1015.13 1015.49 1015.77 1015.95 1016.04 1016.04 1015.99 1015.89 1015.78 1015.67 1015.61 1015.62 1015.71 1015.90 1016.19 1016.59 1017.10 1017.70 1018.37 1019.10 1019.86 1020.62 1021.38 1022.09 1022.76 1023.35 1023.87
1005.73 1006.29 1006.94 1007.64 1008.35 1009.05 1009.71 1010.33 1010.90 1011.43 1011.94 1012.43 1012.92 1013.41 1013.89 1014.37 1014.83 1015.25 1015.61 1015.92 1016.14 1016.29 1016.38 1016.40 1016.39 1016.35 1016.33 1016.34 1016.41 1016.55 1016.78 1017.09 1017.49 1017.98 1018.53 1019.14 1019.77 1020.43 1021.08 1021.71 1022.30 1022.85 1023.34 1023.76
1005.85 1006.52 1007.26 1008.04 1008.82 1009.57 1010.26 1010.87 1011.42 1011.91 1012.35 1012.76 1013.17 1013.57 1013.98 1014.40 1014.81 1015.21 1015.58 1015.91 1016.18 1016.39 1016.54 1016.63 1016.69 1016.73 1016.77 1016.84 1016.95 1017.12 1017.36 1017.68 1018.06 1018.52 1019.02 1019.56 1020.12 1020.69 1021.24 1021.77 1022.27 1022.72 1023.13 1023.47
1006.03 1006.80 1007.63 1008.49 1009.32 1010.10 1010.80 1011.40 1011.91 1012.35 1012.72 1013.05 1013.37 1013.69 1014.03 1014.38 1014.76 1015.14 1015.50 1015.85 1016.15 1016.40 1016.59 1016.74 1016.85 1016.93 1017.01 1017.10 1017.23 1017.40 1017.64 1017.94 1018.30 1018.72 1019.17 1019.66 1020.16 1020.66 1021.15 1021.61 1022.04 1022.44 1022.78 1023.09
1006.27 1007.13 1008.04 1008.96 1009.84 1010.65 1011.35 1011.94 1012.42 1012.80 1013.11 1013.38 1013.62 1013.87 1014.15 1014.45 1014.78 1015.14 1015.49 1015.83 1016.15 1016.42 1016.64 1016.81 1016.93 1017.03 1017.11 1017.20 1017.32 1017.48 1017.69 1017.96 1018.29 1018.66 1019.08 1019.52 1019.98 1020.44 1020.89 1021.32 1021.71 1022.08 1022.41 1022.70
1006.56 1007.50 1008.49 1009.46 1010.38 1011.20 1011.91 1012.49 1012.95 1013.30 1013.57 1013.78 1013.98 1014.17 1014.40 1014.66 1014.96 1015.28 1015.62 1015.95 1016.26 1016.53 1016.75 1016.92 1017.04 1017.13 1017.19 1017.26 1017.35 1017.47 1017.65 1017.88 1018.16 1018.50 1018.88 1019.30 1019.73 1020.16 1020.59 1021.00 1021.38 1021.74 1022.07 1022.36
1006.90 1007.90 1008.94 1009.95 1010.90 1011.74 1012.45 1013.03 1013.48 1013.81 1014.06 1014.25 1014.41 1014.58 1014.78 1015.01 1015.28 1015.58 1015.89 1016.21 1016.50 1016.76 1016.97 1017.12 1017.22 1017.29 1017.33 1017.37 1017.42 1017.51 1017.64 1017.83 1018.08 1018.38 1018.73 1019.12 1019.52 1019.94 1020.36 1020.76 1021.14 1021.49 1021.82 1022.12
1007.29 1008.33 1009.39 1010.42 1011.38 1012.22 1012.94 1013.52 1013.96 1014.29 1014.53 1014.72 1014.87 1015.03 1015.21 1015.43 1015.68 1015.96 1016.26 1016.56 1016.84 1017.08 1017.27 1017.41 1017.50 1017.54 1017.57 1017.58 1017.60 1017.66 1017.76 1017.91 1018.12 1018.39 1018.71 1019.07 1019.46 1019.85 1020.25 1020.63 1021.00 1021.35 1021.67 1021.96
1007.76 1008.80 1009.85 1010.87 1011.81 1012.64 1013.34 1013.91 1014.35 1014.68 1014.93 1015.12 1015.28 1015.44 1015.62 1015.83 1016.08 1016.35 1016.64 1016.92 1017.19 1017.42 1017.60 1017.74 1017.82 1017.86 1017.88 1017.88 1017.89 1017.93 1018.01 1018.14 1018.32 1018.56 1018.85 1019.18 1019.53 1019.90 1020.26 1020.62 1020.96 1021.28 1021.58 1021.85
1008.35 1009.35 1010.35 1011.32 1012.20 1012.98 1013.65 1014.19 1014.62 1014.95 1015.20 1015.39 1015.56 1015.73 1015.92 1016.14 1016.38 1016.65 1016.93 1017.21 1017.47 1017.70 1017.89 1018.03 1018.12 1018.18 1018.21 1018.22 1018.24 1018.28 1018.35 1018.47 1018.63 1018.84 1019.09 1019.38 1019.70 1020.02 1020.34 1020.66 1020.96 1021.24 1021.49 1021.73
1009.10 1010.02 1010.93 1011.80 1012.59 1013.30 1013.90 1014.39 1014.79 1015.09 1015.34 1015.53 1015.71 1015.88 1016.07 1016.29 1016.53 1016.79 1017.07 1017.35 1017.61 1017.85 1018.05 1018.21 1018.33 1018.42 1018.48 1018.52 1018.56 1018.61 1018.69 1018.80 1018.95 1019.13 1019.35 1019.60 1019.86 1020.14 1020.41 1020.67 1020.92 1021.15 1021.36 1021.55
1010.03 1010.83 1011.61 1012.35 1013.03 1013.63 1014.14 1014.56 1014.90 1015.17 1015.39 1015.57 1015.74 1015.91 1016.10 1016.31 1016.54 1016.79 1017.06 1017.34 1017.60 1017.85 1018.07 1018.25 1018.41 1018.53 1018.62 1018.70 1018.77 1018.84 1018.93 1019.04 1019.17 1019.34 1019.52 1019.72 1019.94 1020.16 1020.38 1020.59 1020.79 1020.97 1021.14 1021.29
1011.11 1011.77 1012.40 1012.99 1013.53 1014.00 1014.41 1014.74 1015.02 1015.24 1015.43 1015.59 1015.74 1015.89 1016.06 1016.25 1016.47 1016.70 1016.96 1017.22 1017.48 1017.73 1017.95 1018.16 1018.34 1018.49 1018.61 1018.72 1018.82 1018.91 1019.01 1019.11 1019.23 1019.37 1019.52 1019.68 1019.85 1020.03 1020.21 1020.38 1020.54 1020.69 1020.82 1020.95
Thickness
5798 5810 5813 5810 5810 5813 5808 5806 5800 5800 5795 5791 5793 5793 5794 5799 5801 5800 5796 5792 5788 5783 5780 5777 5774 5771 5768 5764 5761 5757 5753 5748 5745 5742 5740 5737 5733 5731 5728 5726 5724 5721 5719 5717
5784 5801 5808 5806 5811 5813 5813 5813 5810 5804 5792 5794 5789 5791 5790 5794 5795 5791 5789 5787 5784 5780 5775 5771 5768 5765 5763 5759 5756 5752 5748 5744 5741 5737 5734 5731 5728 5725 5722 5719 5717 5714 5712 5710
5767 5790 5793 5786 5805 5810 5812 5818 5813 5796 5794 5792 5784 5780 5781 5789 5790 5787 5785 5783 5779 5775 5770 5766 5763 5761 5757 5754 5751 5747 5742 5738 5735 5732 5728 5725 5722 5718 5714 5711 5709 5706 5703 5701
5760 5766 5751 5788 5821 5820 5813 5813 5816 5806 5798 5792 5783 5780 5784 5791 5789 5784 5781 5777 5773 5770 5765 5762 5760 5756 5753 5750 5745 5741 5736 5733 5729 5726 5721 5718 5714 5709 5706 5703 5700 5697 5694 5692
5751 5750 5760 5787 5805 5809 5800 5795 5808 5800 5790 5786 5784 5779 5776 5782 5783 5778 5775 5771 5768 5766 5762 5757 5753 5750 5746 5742 5738 5734 5730 5726 5723 5720 5715 5711 5706 5701 5698 5695 5691 5688 5684 5681
5744 5738 5742 5773 5800 5811 5799 5775 5798 5795 5784 5781 5779 5763 5759 5772 5773 5769 5766 5764 5760 5758 5754 5748 5745 5743 5738 5734 5730 5726 5723 5720 5717 5713 5709 5704 5700 5695 5691 5688 5682 5678 5673 5669
5734 5735 5753 5781 5792 5791 5758 5759 5784 5786 5782 5777 5769 5765 5761 5763 5760 5759 5756 5755 5752 5747 5742 5739 5737 5734 5728 5724 5720 5718 5717 5713 5709 5705 5701 5697 5692 5688 5683 5678 5672 5667 5661 5656
5731 5728 5736 5772 5774 5760 5755 5771 5776 5775 5771 5765 5761 5758 5754 5751 5748 5747 5744 5743 5741 5736 5732 5730 5728 5724 5718 5714 5712 5710 5707 5703 5699 5696 5693 5688 5683 5678 5674 5669 5663 5656 5650 5644
5736 5734 5747 5760 5758 5762 5767 5761 5763 5763 5761 5756 5750 5746 5743 5740 5738 5735 5733 5730 5729 5725 5721 5718 5716 5713 5708 5705 5704 5700 5696 5692 5689 5685 5681 5677 5673 5668 5664 5659 5654 5647 5641 5634
5728 5729 5741 5747 5750 5754 5755 5754 5754 5754 5751 5747 5740 5737 5733 5729 5726 5722 5720 5718 5717 5714 5710 5705 5704 5702 5699 5696 5694 5690 5685 5681 5677 5673 5668 5663 5660 5656 5652 5648 5644 5638 5631 5625
5719 5723 5729 5733 5736 5739 5740 5743 5743 5743 5741 5736 5731 5726 5722 5717 5713 5710 5708 5706 5704 5701 5697 5694 5692 5690 5688 5685 5683 5679 5675 5670 5666 5660 5655 5649 5643 5639 5637 5633 5633 5628 5622 5616
5702 5716 5718 5717 5726 5729 5727 5728 5729 5727 5724 5723 5719 5714 5710 5705 5701 5699 5696 5694 5691 5688 5685 5682 5680 5678 5676 5674 5673 5669 5664 5659 5654 5649 5643 5637 5631 5623 5618 5618 5615 5613 5609 5605
5707 5711 5714 5715 5718 5719 5718 5718 5718 5715 5711 5708 5705 5702 5697 5692 5689 5686 5683 5680 5677 5675 5673 5670 5668 5666 5664 5663 5661 5659 5654 5649 5644 5638 5633 5627 5622 5617 5609 5601 5599 5596 5594 5590
5701 5701 5698 5702 5703 5706 5706 5704 5703 5701 5698 5695 5692 5688 5684 5679 5676 5673 5670 5667 5665 5663 5660 5658 5656 5653 5652 5651 5649 5646 5642 5638 5634 5629 5624 5619 5614 5609 5604 5598 5591 5583 5578 5576
5691 5692 5692 5694 5693 5691 5691 5691 5686 5683 5682 5680 5678 5675 5671 5666 5663 5660 5658 5656 5654 5651 5649 5646 5644 5641 5640 5638 5636 5634 5631 5627 5623 5619 5615 5610 5605 5600 5596 5590 5584 5577 5570 5565
5681 5683 5683 5680 5679 5678 5678 5677 5672 5669 5668 5666 5664 5660 5658 5655 5651 5649 5647 5645 5642 5640 5637 5635 5632 5629 5628 5627 5625 5622 5619 5616 5613 5610 5606 5602 5597 5593 5588 5582 5577 5571 5566 5561
5668 5667 5667 5667 5668 5668 5667 5666 5663 5661 5658 5655 5651 5649 5646 5643 5640 5637 5635 5633 5632 5629 5627 5625 5622 5620 5619 5617 5615 5613 5610 5606 5603 5601 5598 5594 5590 5585 5581 5576 5570 5564 5559 5554
5664 5664 5662 5661 5659 5658 5656 5655 5653 5650 5647 5645 5642 5639 5636 5633 5629 5627 5624 5623 5621 5619 5617 5615 5614 5612 5610 5609 5607 5605 5603 5599 5597 5594 5590 5586 5583 5579 5575 5570 5565 5560 5554 5548
5657 5656 5654 5653 5652 5650 5648 5645 5642 5640 5638 5636 5633 5629 5626 5623 5621 5619 5617 5615 5613 5610 5608 5607 5605 5604 5603 5601 5600 5598 5596 5594 5591 5587 5583 5578 5576 5573 5569 5565 5560 5555 5550 5545
5647 5647 5646 5645 5644 5641 5638 5635 5633 5630 5628 5626 5623 5620 5616 5614 5612 5610 5609 5607 5606 5604 5602 5600 5599 5598 5596 5595 5594 5594 5592 5590 5586 5581 5578 5574 5571 5567 5564 5560 5556 5551 5546 5541
5637 5637 5635 5633 5631 5629 5628 5626 5623 5620 5619 5617 5614 5611 5608 5606 5604 5603 5601 5599 5596 5596 5595 5593 5593 5593 5592 5590 5588 5589 5587 5584 5580 5576 5573 5569 5566 5563 5559 5555 5550 5546 5541 5537
5628 5626 5625 5622 5620 5617 5616 5615 5614 5612 5610 5608 5606 5604 5601 5599 5598 5596 5595 5593 5590 5588 5589 5589 5589 5586 5585 5584 5585 5584 5581 5577 5574 5571 5567 5564 5561 5557 5553 5548 5544 5540 5536 5532
5617 5617 5615 5613 5611 5608 5606 5605 5604 5603 5601 5600 5598 5597 5596 5594 5593 5591 5588 5586 5586 5583 5584 5583 5581 5579 5577 5579 5579 5578 5574 5571 5567 5564 5561 5558 5555 5550 5546 5542 5538 5534 5530 5526
5607 5606 5605 5604 5602 5600 5597 5596 5596 5595 5594 5593 5592 5591 5590 5589 5587 5587 5584 5580 5580 5578 5578 5574 5573 5571 5570 5572 5572 5571 5568 5564 5562 5559 5556 5553 5549 5545 5541 5537 5533 5528 5524 5520
5598 5598 5597 5595 5594 5592 5591 5591 5589 5588 5588 5588 5587 5586 5587 5586 5584 5583 5579 5576 5572 5571 5570 5566 5565 5564 5565 5565 5565 5563 5561 5558 5556 5553 5551 5547 5544 5540 5535 5531 5527 5523 5518 5514
5590 5589 5589 5589 5588 5587 5587 5586 5585 5584 5584 5583 5583 5583 5582 5581 5579 5577 5574 5571 5569 5566 5565 5562 5561 5559 5560 5560 5559 5557 5555 5551 5549 5546 5544 5541 5537 5533 5529 5525 5521 5517 5513 5508
5583 5583 5583 5583 5583 5583 5583 5582 5581 5580 5580 5580 5579 5578 5578 5577 5575 5573 5571 5568 5566 5563 5561 5559 5558 5557 5556 5555 5554 5552 5550 5547 5544 5540 5537 5534 5530 5526 5523 5518 5515 5511 5507 5503